Location: Melito Irpino
(41.1000°N, 15.0167°E)
Time: 11:02:39
(UTC+00:00)

Daily predictions for brighter satellites

Satellite Brightness Start Highest point End
(mag) Time Altitude Azimuth Time Altitude Azimuth Time Altitude Azimuth
NOSS 3-1 (A) 4.3 15:48:27 10° NNW 15:55:52 55° NE 16:04:26 10° SE
NOSS 3-1 (C) 4.2 15:49:02 10° NNW 15:56:43 81° NE 16:05:38 10° SE
Cosmos 1833 Rocket 2.8 15:54:49 10° S 16:00:17 58° ESE 16:05:48 10° NNE
Cosmos 1464 Rocket 4.5 16:01:41 10° SSW 16:08:01 69° W 16:14:23 10° N
Cosmos 1340 Rocket 2.8 16:08:01 10° N 16:12:07 77° E 16:16:11 10° SSE
SJ 16-02 3.5 16:08:43 10° NW 16:12:33 31° W 16:16:24 10° SSW
ISS -1.9 16:12:42 10° NNW 16:15:05 17° NNE 16:17:10 11° NE
CZ-2D R/B 4.1 16:11:47 10° SE 16:15:08 29° ENE 16:18:28 10° N
CZ-4B R/B 4.0 16:13:32 10° ESE 16:18:05 28° ENE 16:22:36 10° N
Nadezhda 4 Rocket 4.2 16:13:39 10° N 16:20:00 83° W 16:26:19 10° S
Cosmos 540 Rocket 3.5 16:17:06 10° S 16:22:06 59° ESE 16:27:07 10° NNE
Cosmos 2360 4.4 16:17:18 10° NNW 16:22:54 52° ENE 16:28:27 10° SE
Meteor 1-20 Rocket 4.3 16:18:27 10° N 16:24:18 75° E 16:30:08 10° SSE
CZ-2C R/B 3.3 16:20:23 10° NE 16:24:56 30° E 16:29:26 10° SSE
CZ-4B R/B 3.8 16:21:13 10° S 16:25:16 54° W 16:29:08 10° NNW
Cosmos 1500 Rocket 3.6 16:20:51 10° N 16:25:19 90° WSW 16:29:42 10° S
CZ-4C R/B 3.7 16:19:51 10° NNW 16:26:08 32° NE 16:33:19 10° ESE
SMAP 3.0 16:22:14 10° SSE 16:26:53 84° ENE 16:31:34 10° NNW
CZ-2C R/B 3.9 16:24:13 10° S 16:29:03 52° W 16:33:45 10° NNW
Cosmos 1500 3.7 16:27:24 10° N 16:30:51 34° ENE 16:34:16 10° SE
Cosmos 468 Rocket 4.3 16:26:44 10° SSW 16:31:51 67° WNW 16:37:02 10° NNE
Cosmos 1092 Rocket 4.0 16:28:25 10° N 16:34:48 76° E 16:41:07 10° SSE
Cosmos 1933 3.3 16:30:51 10° S 16:34:54 87° W 16:38:58 10° N
Cosmos 1898 Rocket 3.4 16:31:17 10° NNW 16:36:33 82° ENE 16:41:45 10° SSE
Cosmos 1805 Rocket 3.4 16:32:33 10° N 16:36:53 70° E 16:41:11 10° SSE
Sich 1 3.1 16:33:20 10° N 16:37:33 54° E 16:41:46 10° SSE
Cosmos 1428 Rocket 4.4 16:33:23 10° N 16:39:31 71° E 16:45:39 10° SSE
PSLV R/B 3.5 16:36:39 10° SSE 16:40:17 69° ENE 16:44:00 10° N
deb Chang Zheng 4 3.8 16:45:55 10° SE 16:49:59 43° ENE 16:54:05 10° N
H-2A R/B 1.9 16:47:38 10° SSE 16:52:50 75° ENE 16:57:54 10° N
Cosmos 2084 3.9 16:48:58 10° NW 16:53:17 66° WSW 16:57:46 10° SSE
GPS 2-04 Rocket1 3.8 16:50:23 10° WSW 16:54:13 38° S 16:56:49 18° ESE
Cosmos 1627 Rocket 4.5 16:49:17 10° N 16:55:28 88° W 17:01:35 10° S
Meteor 1-14 Rocket 4.4 16:53:12 10° N 16:58:56 56° ENE 17:04:44 10° SSE
Meteor 2-16 Rocket 4.5 16:53:06 10° N 16:59:05 55° ENE 17:05:04 10° SSE
NOSS 2-2 (C) 4.5 16:54:37 10° NNW 16:59:56 58° NE 17:07:22 10° SE
Cosmos 2279 Rocket 3.9 16:54:12 10° S 17:00:19 64° E 17:06:27 10° NNE
Cosmos 1666 2.9 16:56:59 10° N 17:00:33 42° ENE 17:04:05 10° SSE
SJ-11-01 4.4 16:56:38 10° SSE 17:01:13 52° ENE 17:05:50 10° N
Cosmos 2322 Rocket 4.0 16:58:33 10° NNE 17:00:04 13° NNE 17:00:04 13° NNE
CZ-4C R/B 4.3 17:04:28 24° SE 17:04:28 24° SE 17:06:18 10° SSE
USA 267 4.3 16:58:13 13° NE 17:03:22 36° NNW 17:09:12 10° W
Cosmos 1697 Rocket 3.0 16:59:34 10° NNW 17:05:09 67° WSW 17:10:42 10° SSE
DEBRIS 4.1 17:04:56 10° S 17:06:15 19° SE 17:06:15 19° SE
Cosmos 2369 3.6 17:02:49 10° NNW 17:08:35 85° ENE 17:14:18 10° SSE
Cosmos 1980 Rocket 2.1 17:03:26 10° NNW 17:09:06 68° ENE 17:14:41 10° SSE
COSMO-SKYMED 1 2.4 17:05:08 11° NNE 17:09:20 82° ESE 17:13:40 10° S
MOS 1-B Rocket 4.1 17:03:37 10° NNE 17:09:33 83° WNW 17:16:21 10° SSW
Meteor 1-5 Rocket 4.3 17:05:12 10° N 17:11:09 63° ENE 17:16:59 10° SSE
Cosmos 841 Rocket 3.9 17:07:03 10° SSW 17:12:10 63° WNW 17:17:15 10° NNE
Cosmos 1812 2.7 17:09:45 10° S 17:13:36 82° W 17:16:31 17° N
SL-24 R/B - RUBIN 2 3.4 17:09:29 10° NNW 17:13:55 63° NE 17:15:48 32° SE
Cosmos 1937 Rocket 4.1 17:12:49 10° NNW 17:18:03 59° WSW 17:23:14 10° S
SL-16 R/B 3.5 17:14:26 10° N 17:17:26 22° NNE 17:17:26 22° NNE
Cosmos 2082 Rocket 2.4 17:14:09 10° SSW 17:19:49 70° WNW 17:24:27 16° NNE
Cosmos 1633 Rocket 2.9 17:16:28 10° N 17:20:51 72° E 17:25:12 10° SSE
Cosmos 921 Rocket 3.7 17:17:02 10° S 17:20:00 34° SE 17:20:00 34° SE
Okean O Rocket 1.6 17:23:18 10° SSE 17:27:44 85° WSW 17:32:14 10° NNW
USA 276 4.0 17:29:17 10° WNW 17:31:59 26° SW 17:32:47 23° SSW
Cosmos 372 Rocket 4.2 17:27:11 10° NNW 17:32:24 69° WSW 17:37:36 10° S
Cosmos 2278 3.6 17:27:20 10° NNW 17:33:04 76° ENE 17:38:40 10° SSE
Cosmos 1151 Rocket 3.7 17:30:18 10° SSW 17:34:30 54° W 17:38:08 14° N
USA 234 3.9 17:29:21 10° SSE 17:35:43 54° SW 17:42:07 10° NW
Cosmos 1655 Rocket 3.9 17:32:41 10° N 17:39:03 64° E 17:45:21 10° SSE
IRAS Rocket 4.4 17:39:33 48° ESE 17:39:33 48° ESE 17:44:26 10° S
COSMOS 2455 3.8 17:33:59 10° SW 17:39:43 45° NW 17:43:55 18° NNE
Meteor 2-15 4.3 17:34:10 10° S 17:40:16 81° E 17:45:41 14° N
ARGOS 3.4 17:36:01 10° S 17:41:23 68° WSW 17:46:48 10° NNW
Meteor 2-6 Rocket 4.5 17:42:49 10° SSW 17:48:36 70° W 17:53:26 15° N
Cosmos 1328 Rocket 4.2 17:44:29 10° SSW 17:48:50 55° W 17:50:52 29° NNW
ISS -1.3 17:49:05 10° NW 17:50:10 19° NW 17:50:10 19° NW
DMSP B5D2-2 3.9 17:57:01 86° E 17:57:02 86° ESE 18:02:16 10° SSW
NOAA 15 4.5 17:52:44 10° SSE 17:58:02 88° WSW 18:03:20 10° NNW
Lacrosse 5 rocket 3.8 17:55:57 10° NNW 17:56:31 13° NNW 17:56:31 13° NNW
GEOS 3 Rocket 3.8 18:02:09 59° N 18:02:09 59° N 18:06:26 10° NNW
SL-08 RB Rocket 4.3 17:56:46 10° S 18:01:19 56° W 18:05:53 10° NNW
ATLAS CENTAUR R/B 4.2 17:56:21 10° W 18:01:59 22° NW 18:03:24 19° NNW
CZ-2C R/B 3.6 18:01:31 10° SW 18:02:58 17° SSW 18:02:58 17° SSW
CZ-2C R/B 4.1 18:00:37 10° N 18:05:12 32° WNW 18:09:44 10° SW
Meteor 1-10 Rocket 4.5 18:00:53 10° SSW 18:06:40 68° W 18:09:02 36° N
Cosmos 1818 4.4 18:05:26 10° NNW 18:09:02 42° NNW 18:09:02 42° NNW
CZ-4C R/B 3.1 18:07:53 10° NW 18:15:24 76° WSW 18:20:11 29° SSE
Cosmos 2322 Rocket 4.4 18:40:50 10° NNW 18:41:55 16° NNW 18:41:55 16° NNW
SL-16 R/B 4.4 18:57:55 10° NNW 18:59:21 18° NW 18:59:21 18° NW
